Location: Middelsbur
(53.6609°N, 7.5020°E)
Time: 00:34:25
(UTC+00:00)

Resurs 01 Rocket - Pass Details

Date: 06 July 2020
Orbit: 634 x 644 km, 98.0° (Epoch: 03 August)

Event Time Altitude Azimuth Distance (km) Brightness Sun altitude
Rises 21:11:20 0° 209° (SSW) 2,931 4.7 -7.7°
Reaches altitude 10° 21:14:13 10° 229° (SW) 2,026 4.1 -7.9°
Maximum altitude 21:17:08 17° 271° (W) 1,602 4.1 -8.2°
Drops below altitude 10° 21:20:05 10° 313° (NW) 2,034 5.7 -8.4°
Sets 21:22:59 0° 334° (NNW) 2,948 7.5 -8.6°
